Главная страница
METAR-TAF:

METAR-TAF

Аэропорты :

Vilhelmina, Швеция

широта: 64-34-44N, долгота: 016-50-00E, высота над уровнем моря: 347 м

Текущие метеонаблюдения

Эта сводка был подготовлена 35 минут назад, в 11:50 UTC
Ветер 8 Узел от восточный
Температура 4°C
Влажность 87%
Давление 1000 hPa
Видимость 10 км и более
небольшой дождь

METAR: ESNV 241150Z AUTO 08008KT 9999 -RA BKN009/// OVC012/// 04/02 Q1000

Время: 14:25 (12:25 UTC)


TAF: отсутствует

Метеонаблюдения и прогнозы для более 4000 аэропортов (сводки METAR и TAF).

Имеющиеся станции представлены на карте желтыми и красными точками.

Чтобы увидеть название станции, наведите на нее мышь.

Затем щелкните, чтобы увидеть метеонаблюдения и метеопрогнозы.

Управление картой: чтобы увеличить масштаб, щелкните зеленые кнопки с черным крестиком; чтобы уменьшить масштаб, щелкните зеленую кнопку с тире; для просмотра соседних карт щелкайте зеленые стрелки.


METAR-TAF: